DW8215 Weather Reports


Display with metric or nautical units.
time (UTC)temp
F
wind
direction
speed
MPH
gust
MPH
rain 1hr
in
rain 24hr
in
rain mn
in
humidity
%
barometer
mb
20260506123022 36 200 2.0 5.0 0.00 0.00 0.00 74 1013.5
20260506121520 36 281 1.0 8.0 0.00 0.00 0.00 74 1013.5
20260506120020 36 244 2.0 4.0 0.00 0.00 0.00 74 1013.5
20260506114516 35 257 2.0 5.0 0.00 0.00 0.00 73 1013.4
20260506113017 35 232 0.0 4.0 0.00 0.00 0.00 72 1013.3
20260506111513 35 237 1.0 4.0 0.00 0.00 0.00 71 1013.2
20260506110012 35 254 0.0 3.0 0.00 0.00 0.00 71 1013.2
20260506104511 35 246 0.0 4.0 0.00 0.00 0.00 71 1013.1
20260506103016 35 261 1.0 7.0 0.00 0.00 0.00 72 1012.9
20260506101508 35 247 1.0 3.0 0.00 0.00 0.00 71 1012.8
20260506100007 35 227 1.0 3.0 0.00 0.00 0.00 70 1012.8
20260506094507 35 236 1.0 4.0 0.00 0.00 0.00 70 1012.7
20260506093011 35 228 0.0 3.0 0.00 0.00 0.00 70 1012.7
20260506091504 35 215 0.0 0.0 0.00 0.00 0.00 71 1012.6
20260506090003 35 226 0.0 0.0 0.00 0.00 0.00 71 1012.7
20260506084506 36 250 0.0 2.0 0.00 0.00 0.00 70 1012.7
20260506083001 36 214 0.0 2.0 0.00 0.00 0.00 70 1012.9
20260506081501 36 232 0.0 3.0 0.00 0.00 0.00 70 1012.8
20260506080112 36 269 0.0 2.0 0.00 0.00 0.00 70 1012.7
20260506073111 36 253 0.0 6.0 0.00 0.00 0.00 70 1012.7
20260506071555 36 285 0.0 3.0 0.00 0.00 0.00 70 1012.5
20260506061600 36 227 0.0 1.0 0.00 0.00 0.00 69 1012.5
20260506044545 36 236 0.0 1.0 0.00 0.00 0.00 66 1012.3
20260506043045 36 232 0.0 0.0 0.00 0.00 0.00 68 1012.3
20260506041544 36 240 0.0 1.0 0.00 0.00 0.00 65 1012.2
20260506040035 36 256 0.0 0.0 0.00 0.00 0.00 66 1012.2
20260506034536 36 256 0.0 0.0 0.00 0.00 0.00 66 1012.2
20260506033035 36 256 0.0 0.0 0.00 0.00 0.00 71 1012.2
20260506031635 36 256 0.0 0.0 0.00 0.00 0.00 70 1012.3
20260506030033 36 256 0.0 0.0 0.00 0.00 0.00 68 1012.3
20260506024530 36 256 0.0 0.0 0.00 0.00 0.00 67 1012.3
20260506023028 36 256 0.0 0.0 0.00 0.00 0.00 63 1012.1
20260506021525 37 256 0.0 0.0 0.00 0.00 0.00 62 1012.0
20260506020042 37 260 0.0 2.0 0.00 0.00 0.00 60 1011.9
20260506014524 37 225 1.0 3.0 0.00 0.00 0.00 58 1011.8
20260506013021 38 302 0.0 4.0 0.00 0.00 0.00 59 1011.6
20260506011523 38 231 1.0 6.0 0.00 0.00 0.00 57 1011.5
20260506010024 38 294 0.0 7.0 0.00 0.00 0.00 59 1011.4
20260506004524 38 276 0.0 7.0 0.00 0.00 0.00 58 1011.4
20260506003019 38 273 0.0 5.0 0.00 0.00 0.00 56 1011.4
20260506001516 38 262 1.0 6.0 0.00 0.00 0.00 56 1011.5
20260506000023 38 322 0.0 4.0 0.00 0.00 0.00 57 1011.5
20260505234515 38 284 2.0 10.0 0.00 0.00 0.00 56 1011.4
20260505233013 39 285 2.0 12.0 0.00 0.00 0.00 55 1011.1
20260505231513 40 244 6.0 13.0 0.00 0.00 0.00 55 1011.1
20260505230018 40 331 5.0 14.0 0.00 0.00 0.00 55 1011.0
20260505224507 40 239 5.0 12.0 0.00 0.00 0.00 56 1010.9
20260505223007 39 188 5.0 14.0 0.00 0.00 0.00 58 1010.8
20260505221506 39 258 5.0 16.0 0.00 0.00 0.00 58 1010.8
20260505220004 39 223 3.0 11.0 0.00 0.00 0.00 60 1010.7
20260505214501 40 355 3.0 9.0 0.00 0.00 0.00 58 1010.7
20260505213100 40 240 3.0 17.0 0.00 0.00 0.00 57 1010.6
20260505211636 39 207 5.0 15.0 0.00 0.00 0.00 57 1010.5
20260505210058 39 202 5.0 17.0 0.00 0.00 0.00 57 1010.6
20260505204605 39 222 6.0 14.0 0.00 0.00 0.00 58 1010.4
20260505203057 39 217 5.0 16.0 0.00 0.00 0.00 58 1010.3
20260505201553 39 236 7.0 16.0 0.00 0.00 0.00 56 1010.2
20260505200052 40 251 4.0 13.0 0.00 0.00 0.00 55 1010.2
20260505194549 39 330 2.0 24.0 0.00 0.00 0.00 59 1009.8
20260505193047 40 326 3.0 13.0 0.00 0.00 0.00 57 1009.5
20260505191546 40 208 3.0 13.0 0.00 0.00 0.00 60 1009.3
20260505190044 39 229 6.0 17.0 0.00 0.00 0.00 59 1009.2
20260505184543 40 279 6.0 13.0 0.00 0.00 0.00 59 1009.0
20260505183039 40 330 4.0 13.0 0.00 0.00 0.00 57 1008.9
20260505181552 40 279 4.0 17.0 0.00 0.00 0.00 59 1008.7
20260505180036 40 224 3.0 12.0 0.00 0.00 0.00 58 1008.6
20260505174537 39 304 4.0 12.0 0.00 0.00 0.00 61 1008.7
20260505164559 38 255 5.0 13.0 0.00 0.00 0.00 70 1008.3
20260505163057 38 272 4.0 12.0 0.00 0.00 0.00 71 1008.0
20260505161555 39 310 5.0 15.0 0.00 0.00 0.00 71 1007.9
20260505153053 40 267 3.0 11.0 0.00 0.00 0.00 73 1007.3
20260505151551 40 269 3.0 13.0 0.00 0.00 0.00 75 1007.1
20260505124528 36 259 4.0 9.0 0.00 0.00 0.00 88 1005.4